This demonstration page uses our WeatherBlox Daily Observations layout. Learn more.

Left ArrowRight Arrow

Hourly Observations for September 14, 2017

Temp ( °F °C ) Dew Point ( °F °C ) Humidity (%) Winds ( mph kmh ) Pressure ( in mb ) Visibility ( mi km ) Precip ( " mm )
12:10 am 00:10 Cloudy 61 16 59 15 94 94 N N/A 29.83 1010 10 16 N/A
12:30 am 00:30 Cloudy 61 16 59 15 94 94 N N/A 29.83 1010 10 16 N/A
12:50 am 00:50 Cloudy 61 16 59 15 94 94 N N/A 29.83 1010 10 16 N/A
1:10 am 01:10 Cloudy 61 16 59 15 94 94 N N/A 29.83 1010 10 16 N/A
1:30 am 01:30 Cloudy 61 16 59 15 94 94 N N/A 29.83 1010 10 16 N/A
1:50 am 01:50 Cloudy 61 16 59 15 94 94 N N/A 29.83 1010 10 16 N/A
2:10 am 02:10 Cloudy 61 16 59 15 94 94 N N/A 29.83 1010 10 16 N/A
2:30 am 02:30 Cloudy 61 16 59 15 94 94 SW 3 6 29.83 1010 10 16 N/A
2:50 am 02:50 Cloudy 61 16 59 15 94 94 N N/A 29.83 1010 7 11 N/A
3:10 am 03:10 Cloudy 61 16 59 15 94 94 N N/A 29.83 1010 7 11 N/A
3:30 am 03:30 Cloudy 61 16 59 15 94 94 N N/A 29.83 1010 7 11 N/A
3:50 am 03:50 Cloudy 61 16 59 15 94 94 N N/A 29.83 1010 3 5 N/A
4:10 am 04:10 Cloudy 61 16 59 15 94 94 N N/A 29.83 1010 3 5 N/A
4:30 am 04:30 Cloudy 61 16 59 15 94 94 N N/A 29.83 1010 3 5 N/A
4:50 am 04:50 Cloudy 61 16 59 15 94 94 N N/A 29.83 1010 5 8 N/A
5:10 am 05:10 Cloudy 61 16 59 15 94 94 N N/A 29.85 1011 5 8 N/A
5:30 am 05:30 Cloudy 61 16 59 15 94 94 N N/A 29.85 1011 5 8 N/A
5:50 am 05:50 Cloudy 61 16 59 15 94 94 N N/A 29.85 1011 5 8 N/A
6:10 am 06:10 Cloudy 61 16 59 15 94 94 N N/A 29.85 1011 5 8 N/A
6:30 am 06:30 Cloudy 61 16 59 15 94 94 N N/A 29.85 1011 5 8 N/A
6:50 am 06:50 Cloudy 61 16 59 15 94 94 N N/A 29.88 1012 5 8 N/A
7:10 am 07:10 Cloudy 61 16 61 16 100 100 N N/A 29.88 1012 5 8 N/A
7:30 am 07:30 Cloudy 61 16 61 16 100 100 N N/A 29.88 1012 5 8 N/A
7:50 am 07:50 Cloudy 61 16 59 15 94 94 N N/A 29.88 1012 4 6 N/A
8:10 am 08:10 Cloudy 61 16 61 16 100 100 N N/A 29.91 1013 4 6 N/A
8:30 am 08:30 Cloudy 61 16 61 16 100 100 N N/A 29.91 1013 4 6 N/A
8:50 am 08:50 Cloudy 61 16 61 16 100 100 N N/A 29.91 1013 5 8 N/A
9:10 am 09:10 Cloudy 63 17 61 16 94 94 N N/A 29.91 1013 7 11 N/A
9:30 am 09:30 Partly Cloudy 63 17 61 16 94 94 N N/A 29.91 1013 7 11 N/A
9:50 am 09:50 Partly Cloudy 64 18 61 16 88 88 N N/A 29.91 1013 7 11 N/A
10:10 am 10:10 Cloudy 64 18 61 16 88 88 NW 5 7 29.94 1014 10 16 N/A
10:30 am 10:30 Cloudy 64 18 61 16 88 88 NW 6 9 29.94 1014 10 16 N/A
10:50 am 10:50 Cloudy 64 18 61 16 88 88 NNW 5 7 29.94 1014 10 16 N/A
11:10 am 11:10 Mostly Cloudy 64 18 61 16 88 88 N 3 6 29.94 1014 10 16 N/A
11:30 am 11:30 Mostly Cloudy 66 19 59 15 78 78 N N/A 29.94 1014 10 16 N/A
11:50 am 11:50 Partly Cloudy 68 20 59 15 73 73 N N/A 29.94 1014 10 16 N/A
12:10 pm 12:10 Sunny 68 20 59 15 73 73 NE 3 6 29.94 1014 10 16 N/A
12:30 pm 12:30 Mostly Cloudy 68 20 59 15 73 73 NNE 6 9 29.94 1014 10 16 N/A
12:50 pm 12:50 Cloudy 68 20 59 15 73 73 N N/A 29.94 1014 10 16 N/A
1:10 pm 13:10 Cloudy 68 20 59 15 73 73 NNE 3 6 29.94 1014 10 16 N/A
1:30 pm 13:30 Mostly Cloudy 72 22 59 15 65 65 N 3 6 29.91 1013 10 16 N/A
1:50 pm 13:50 Mostly Cloudy 72 22 57 14 61 61 N N/A 29.91 1013 10 16 N/A
2:10 pm 14:10 Cloudy 70 21 57 14 64 64 N N/A 29.91 1013 10 16 N/A
2:30 pm 14:30 Cloudy 72 22 59 15 65 65 N N/A 29.91 1013 10 16 N/A
2:50 pm 14:50 Mostly Cloudy 72 22 57 14 61 61 N N/A 29.91 1013 10 16 N/A
3:10 pm 15:10 Cloudy 72 22 57 14 61 61 N N/A 29.91 1013 10 16 N/A
3:30 pm 15:30 Cloudy 73 23 57 14 57 57 N N/A 29.91 1013 10 16 N/A
3:50 pm 15:50 Cloudy 73 23 57 14 57 57 N N/A 29.91 1013 10 16 N/A
4:10 pm 16:10 Cloudy 72 22 57 14 61 61 N N/A 29.91 1013 10 16 N/A
4:30 pm 16:30 Cloudy 73 23 59 15 61 61 N N/A 29.91 1013 10 16 N/A
4:50 pm 16:50 Cloudy 72 22 59 15 65 65 N N/A 29.91 1013 10 16 N/A
5:10 pm 17:10 Cloudy 72 22 59 15 65 65 E 3 6 29.91 1013 10 16 N/A
5:30 pm 17:30 Cloudy 72 22 59 15 65 65 N N/A 29.91 1013 10 16 N/A
5:50 pm 17:50 Cloudy 72 22 57 14 61 61 N N/A 29.91 1013 10 16 N/A
6:10 pm 18:10 Cloudy 72 22 59 15 65 65 N N/A 29.91 1013 10 16 N/A
6:30 pm 18:30 Mostly Cloudy 72 22 59 15 65 65 SE 6 9 29.91 1013 10 16 N/A
6:50 pm 18:50 Partly Cloudy 72 22 61 16 69 69 SE 5 7 29.91 1013 10 16 N/A
7:10 pm 19:10 Sunny 70 21 61 16 73 73 N N/A 29.94 1014 10 16 N/A
7:30 pm 19:30 Sunny 70 21 61 16 73 73 SE 3 6 29.94 1014 10 16 N/A
7:50 pm 19:50 Sunny 68 20 61 16 78 78 N N/A 29.97 1015 10 16 N/A
8:10 pm 20:10 Clear 66 19 61 16 83 83 SE 3 6 29.97 1015 10 16 N/A
8:30 pm 20:30 Clear 64 18 61 16 88 88 SE 3 6 29.97 1015 10 16 N/A
8:50 pm 20:50 Mostly Cloudy 64 18 59 15 83 83 ESE 5 7 29.97 1015 10 16 N/A
9:10 pm 21:10 Partly Cloudy 63 17 59 15 88 88 ESE 3 6 29.97 1015 10 16 N/A
9:30 pm 21:30 Clear 63 17 59 15 88 88 SE 3 6 30.00 1016 10 16 N/A
9:50 pm 21:50 Clear 63 17 59 15 88 88 SSE 5 7 30.00 1016 10 16 N/A
10:11 pm 22:11 Clear 61 16 59 15 94 94 S 3 6 30.00 1016 10 16 N/A
10:30 pm 22:30 Clear 61 16 59 15 94 94 S 3 6 30.00 1016 10 16 N/A
10:50 pm 22:50 Clear 61 16 57 14 88 88 SSE 3 6 30.00 1016 10 16 N/A
11:10 pm 23:10 Clear 59 15 57 14 94 94 SSE 5 7 30.00 1016 10 16 N/A
11:30 pm 23:30 Clear 59 15 57 14 94 94 SSE 5 7 30.00 1016 10 16 N/A
11:50 pm 23:50 Clear 57 14 55 13 94 94 N N/A 30.00 1016 10 16 N/A

Powered by AerisWeather